Regional Weather Roundup
Issued by NWS

Home | Current Version | Previous Version | Text Only | Print | Product List | Glossary Off
Versions: 1 2 3 4 5 6 7 8 9 10 11 12 13 14 15 16 17 18 19 20 21 22 23 24 25 26 27 28 29 30 31 32 33 34 35 36 37 38 39 40 41 42 43 44 45 46 47 48 49 50

214
ASUS45 KBOU 130310
RWRCO

WEATHER ROUNDUP FOR COLORADO
NATIONAL WEATHER SERVICE DENVER/BOULDER CO
800 PM MST TUE DEC 12 2017

NOTE: "FAIR" INDICATES FEW OR NO CLOUDS BELOW 12000 FEET WITH NO
SIGNIFICANT WEATHER AND/OR OBSTRUCTIONS TO VISIBILITY.

COZ001>005-013-030-031-130400-
...NORTHWEST COLORADO...

CITY           SKY/WX    TMP DP  RH WIND       PRES   REMARKS
CRAIG          FAIR      19  14  81 CALM      30.34F
HAYDEN         FAIR      31  15  52 SE6       30.35F WCI  25
MEEKER         FAIR      30  10  43 CALM      30.35S
RABBIT EARS PA FAIR      28   9  43 W9G18     30.41F WCI  20
STEAMBOAT SPGS FAIR      27  16  63 CALM      30.34F
WALDEN         FAIR      19   7  58 SE10      30.35F WCI   8
$$

COZ006>008-011-130400-
...WEST CENTRAL VALLEYS...

CITY           SKY/WX    TMP DP  RH WIND       PRES   REMARKS
GRAND JUNCTION FAIR      36   8  31 N5        30.33S
MONTROSE       FAIR      27   9  46 SE5       30.36F WCI  22
EAGLE          FAIR      23  14  68 S3        30.41S
RIFLE          FAIR      29  11  47 CALM      30.35S
DELTA          FAIR      37   7  28 CALM      30.35S
NUCLA          FAIR      36   5  27 E8        30.37S
$$

COZ017>023-064>068-130400-
...SOUTHWEST COLORADO...

CITY           SKY/WX    TMP DP  RH WIND       PRES   REMARKS
DURANGO        FAIR      29   3  33 N7        30.32F WCI  22
CORTEZ         FAIR      24   1  36 E10       30.32F WCI  14
PAGOSA SPRINGS FAIR      30  -1  27 CALM      30.35F
TELLURIDE      FAIR      35   7  31 SE7       30.41F WCI  30
WOLF CREEK PAS FAIR      32   1  27 NW5       30.53F WCI  27
$$

COZ009-010-012-014-032>034-037-058>063-130400-
...CENTRAL COLORADO...

CITY           SKY/WX    TMP DP  RH WIND       PRES   REMARKS
ASPEN          FAIR      28  14  55 SW9       30.38F WCI  19
BUENA VISTA    FAIR      39  12  32 NW16      30.32S
COPPER MTN     NOT AVBL
BERTHOUD PASS  FAIR      23  12  63 NW36G46   30.41F WCI   4
COTTONWOOD PAS FAIR      43   9  24 NW8G16    30.38F
GUNNISON       FAIR      22   9  57 N3        30.39S
KREMMLING      FAIR      19  14  79 CALM      30.40F
LEADVILLE      FAIR      23   9  55 NE7       30.40F WCI  15
MONARCH PASS   FAIR      28   9  43 SW20      30.56F WCI  15
SALIDA         FAIR      42   8  24 NW6       30.38F
SUNLIGHT       FAIR      32   1  27 NW5       30.50F WCI  27
WILKERSON PASS FAIR      36   0  21 NW15G25   30.43F
$$

COZ069>075-130400-
...SAN LUIS VALLEY/SANGRE DE CRISTO MOUNTAINS...

CITY           SKY/WX    TMP DP  RH WIND       PRES   REMARKS
ALAMOSA        FAIR      20  -2  38 CALM      30.32F
DEL NORTE      FAIR      29   3  33 S3        30.34F
LA VETA PASS   FAIR      32   5  32 SW24        N/A  WCI  19
SAGUACHE       FAIR      36   9  32 NW12      30.33F
$$

COZ035-036-038>040-130400-
...NORTHERN COLORADO FRONT RANGE...

CITY           SKY/WX    TMP DP  RH WIND       PRES   REMARKS
DENVER INTL AP FAIR      47  10  22 SW9       30.14F
DMNS CITY PARK NOT AVBL
AURORA         PTCLDY    48  12  23 S8        30.16F
FRONT RANGE AP PTCLDY    48  12  23 SW9       30.15F
ERIE MUNI ARPT FAIR      43   9  25 CALM      30.18F
BOULDER MUN AP FAIR      55  10  16 SW9       30.13F
CENTENNIAL     FAIR      45  14  28 W9        30.16F
BROOMFIELD     CLEAR     54   9  16 W23       30.15F
FORT COLLINS   FAIR      49  12  22 SW9       30.11F
LONGMONT       FAIR      40  15  35 CALM      30.14F
$$

COZ041-046-047-076>085-087-088-130400-
...PIKES PEAK/PALMER DIVIDE AND SOUTHERN FOOTHILLS...

CITY           SKY/WX    TMP DP  RH WIND       PRES   REMARKS
COLO. SPRINGS  FAIR      37  11  34 N8        30.21S
A. F. ACADEMY  FAIR      29   8  40 N10       30.21F WCI  20
SCHRIEVER AFB  FAIR      43  10  25 NW6       30.20F
CHEYENNE MTN   FAIR      46  10  23 NW5       30.17F
ELLICOTT         N/A    N/A N/A N/A CALM      30.18F
FALCON         FAIR      37   8  29 W9        30.23S
FORT CARSON    FAIR      37  12  35 N9        30.17F
LIMON          FAIR      26  11  52 NW7       30.14F WCI  18
MONUMENT HILL  FAIR      32  10  40 SW7       30.24F WCI  26
CANON CITY     FAIR      41  14  33 W10       30.16F
WALSENBURG     FAIR      46   9  21 SW13      30.17F
TRINIDAD       FAIR      44   9  23 SW14      30.17F
$$

COZ042>045-048>051-090-091-130400-
...NORTHEAST COLORADO...

CITY           SKY/WX    TMP DP  RH WIND       PRES   REMARKS
GREELEY ARPT   FAIR      32  16  51 CALM      30.10F
AKRON          FAIR      46  13  26 MISG      30.06F
BURLINGTON     FAIR      41  15  35 W10       30.06F
WRAY           FAIR      37  14  38 W10       30.02F
YUMA           FAIR      36  14  41 W13       30.04F
STERLING       FAIR      52  14  22 NW18      30.02F
HOLYOKE        FAIR      37  16  41 W10       30.01F
FORT MORGAN    FAIR      38  12  35 W8        30.08F
$$

COZ086-089-092>099-130400-
...SOUTHEAST COLORADO...

CITY           SKY/WX    TMP DP  RH WIND       PRES   REMARKS
PUEBLO         FAIR      37   9  31 SW3       30.13F
LA JUNTA       FAIR      44  12  27 NW5       30.10F
LAMAR          FAIR      30   9  41 SW6       30.07F WCI  24
SPRINGFIELD      N/A     35  13  40 SW9       30.12F WCI  28
$$




USA.gov is the U.S. government's official web portal to all federal, state and local government web resources and services.